Regional Weather Roundup
Issued by NWS

Home | Current Version | Previous Version | Text Only | Print | Product List | Glossary On
Versions: 1 2 3 4 5 6 7 8 9 10 11 12 13 14 15 16 17 18 19 20 21 22 23 24 25 26 27 28 29 30 31 32 33 34 35 36 37 38 39 40 41 42 43 44 45 46 47 48 49 50
000
ASUS44 KLIX 282114
RWRLA
LOUISIANA WEATHER ROUNDUP
NATIONAL WEATHER SERVICE NEW ORLEANS LA
400 PM CDT WED JUN 28 2017

NOTE: "FAIR" INDICATES FEW OR NO CLOUDS BELOW 12,000 FEET WITH NO
      SIGNIFICANT WEATHER AND/OR OBSTRUCTIONS TO VISIBILITY.
      SKY/WX - SKY CONDITION AND SIGNIFICANT WEATHER.
      TMP - AIR TEMPERATURE.    DP   - DEWPOINT TEMPERATURE.
      RH  - RELATIVE HUMIDITY.  PRES - PRESSURE.
      HX  - HEAT INDEX.         WCI  - WIND CHILL INDEX.

*  THESE STATIONS ARE NOT NWS OR FAA STATIONS AND ARE NOT UNDER
   NWS QUALITY CONTROL.

LAZ040-048-061>063-065-066-069-282200-
SOUTHEAST LOUISIANA

CITY           SKY/WX    TMP DP  RH WIND       PRES   REMARKS
N.O. INTL ARPT CLOUDY    78  72  81 S15       29.99F
N.O. LAKEFRONT CLOUDY    81  70  69 S18       29.99F
N.O. DOWNTOWN*   N/A     82  70  66 S12         N/A
RESERVE*       MOCLDY    82  71  69 S13       29.98F
SLIDELL        CLOUDY    82  71  69 SE7       29.99F
BATON ROUGE    CLOUDY    83  70  64 SE7       29.96F
BOOTHVILLE     CLOUDY    79  74  84 SE5       30.01F
BELLE CHASSE   NOT AVBL
BOGALUSA*      FAIR      83  71  66 E5        30.01F
GALLIANO*      RAIN      73  70  90 CALM      30.00F
NEW ROADS*       N/A     80  74  81 S10       29.97F
GONZALES*      FAIR      78  70  76 S16G23    29.98S
HAMMOND*       CLOUDY    77  70  78 SE8       29.99S
HOUMA*         NOT AVBL
PORT FOURCHON* CLEAR     75  73  94 VRB6      29.98F

$$

LAZ041-044-053-054-282200-
SOUTHWEST LOUISIANA

CITY           SKY/WX    TMP DP  RH WIND       PRES   REMARKS
LAKE CHARLES   CLOUDY    84  75  74 SE14      29.92F
LAFAYETTE      LGT RAIN  75  73  93 SE3       29.96F
PATTERSON      CLOUDY    75  74  96 SE9       29.97F
SALT POINT       N/A     76  73  91 VRB3      29.95F
NEW IBERIA     CLOUDY    75  71  87 E7        29.96F
CHENAULT AIRPK PTSUNNY   81  73  78 E12G17    29.94F

$$

LAZ027-028-282200-
CENTRAL LOUISIANA

CITY           SKY/WX    TMP DP  RH WIND       PRES   REMARKS
FORT POLK      CLOUDY    85  71  62 SE13      29.92F
ALEXANDRIA INT CLOUDY    84  73  69 E8        29.93F
ALEXANDRIA     LGT RAIN  75  73  93 E8        29.97S

$$

LAZ001-002-282200-
NORTHWEST LOUISIANA

CITY           SKY/WX    TMP DP  RH WIND       PRES   REMARKS
SHREVEPORT     MOSUNNY   89  69  51 SE8       29.92F
BARKSDALE AFB  PTSUNNY   88  68  50 SE8       29.92F
DTN SHREVEPORT MOSUNNY   89  69  51 SE8G16    29.92F

$$

LAZ014-016-282200-
NORTHEAST LOUISIANA

CITY           SKY/WX    TMP DP  RH WIND       PRES   REMARKS
MONROE         SUNNY     88  68  51 E5        29.95F
TALLULAH       PTSUNNY   87  70  56 SE6       29.96F

$$




USA.gov is the U.S. government's official web portal to all federal, state and local government web resources and services.